User: anonymous   Login
Location: Caltech
(34.1382°N, 118.1253°W)
Time: 10:11:01
(UTC-07:00)
Language:

CZ-4B DEB - Orbit

View from above orbital plane
View from above orbital plane
View from above satellite
View from above satellite

Ground track
Ground track

The orbit data is extracted from the following two-line orbital elements,

1 27433U 02024D   14295.03880985  .00000671  00000-0  39308-3 0  9595
2 27433 098.8431 258.8110 0013574 270.5359 131.7979 14.11650147640412
Epoch (UTC): 22 October 2014 00:55:53
Eccentricity: 0.0013574
inclination: 98.8431°
perigee height: 844 km
apogee height: 863 km
right ascension of ascending node: 258.8110°
argument of perigee: 270.5359°
revolutions per day: 14.11650147
mean anomaly at epoch: 131.7979°
orbit number at epoch: 64041

The dashed part of the orbit path shows where the satellite is in the earth's shadow,  

DLR